T88 EFTU-EFHK

Flight info

Callsign T88
Flight time N/A
Altitude 7500
Route JUTKI DCT TA DCT HAGIP
Aircraft PC12/L-SDFGRWY/S

Departure

Time 2026-04-29 17:14
Airport Turku Airport (EFTU)

Arrival

Time N/A
Airport Helsinki Vantaa Airport (EFHK)
Time Latitude Longitude Altitude Speed Heading
2026-04-29 16:50 60.51154 22.26579 159 ft 0 kts 176°
2026-04-29 17:10 60.51140 22.26544 160 ft 6 kts 278°
2026-04-29 17:10 60.51204 22.26585 154 ft 18 kts 36°
2026-04-29 17:11 60.51312 22.26809 146 ft 25 kts 74°
2026-04-29 17:11 60.51328 22.27184 149 ft 27 kts 85°
2026-04-29 17:11 60.51346 22.27579 151 ft 30 kts 84°
2026-04-29 17:11 60.51365 22.28026 146 ft 34 kts 84°
2026-04-29 17:12 60.51386 22.28449 141 ft 23 kts 73°
2026-04-29 17:12 60.51496 22.28459 145 ft 19 kts 300°
2026-04-29 17:12 60.51503 22.28352 145 ft 0 kts 263°
2026-04-29 17:12 60.51503 22.28351 145 ft 3 kts 263°
2026-04-29 17:13 60.51474 22.27693 147 ft 67 kts 264°
2026-04-29 17:13 60.51417 22.26474 172 ft 102 kts 268°
2026-04-29 17:13 60.51334 22.25062 516 ft 102 kts 270°
2026-04-29 17:13 60.50887 22.23935 619 ft 134 kts 210°
2026-04-29 17:14 60.49815 22.23747 804 ft 169 kts 190°
2026-04-29 17:14 60.48614 22.23096 1048 ft 187 kts 211°
2026-04-29 17:14 60.47422 22.21838 1415 ft 199 kts 216°
2026-04-29 17:14 60.46179 22.20446 1662 ft 211 kts 214°
2026-04-29 17:15 60.44821 22.18990 1594 ft 229 kts 212°
2026-04-29 17:15 60.43418 22.17581 1357 ft 226 kts 210°
2026-04-29 17:15 60.42040 22.16247 1356 ft 209 kts 211°
2026-04-29 17:15 60.40761 22.15018 1179 ft 206 kts 211°
2026-04-29 17:16 60.39525 22.13776 1213 ft 194 kts 213°
2026-04-29 17:16 60.38356 22.12551 1186 ft 187 kts 213°
2026-04-29 17:16 60.37236 22.11347 1203 ft 179 kts 215°
2026-04-29 17:16 60.36164 22.10171 1161 ft 173 kts 215°
2026-04-29 17:17 60.35200 22.09076 1311 ft 150 kts 217°
2026-04-29 17:17 60.34305 22.08041 1397 ft 148 kts 219°
2026-04-29 17:17 60.33392 22.06943 1282 ft 161 kts 217°
2026-04-29 17:17 60.32384 22.05806 1195 ft 167 kts 218°
2026-04-29 17:18 60.31387 22.04589 1194 ft 168 kts 218°
2026-04-29 17:18 60.30401 22.03358 1196 ft 170 kts 218°
2026-04-29 17:18 60.29389 22.02097 1196 ft 172 kts 218°
2026-04-29 17:18 60.28365 22.00835 1199 ft 173 kts 218°
2026-04-29 17:19 60.27336 21.99590 1201 ft 173 kts 218°
2026-04-29 17:19 60.26299 21.98342 1203 ft 173 kts 218°
2026-04-29 17:19 60.25258 21.97100 1205 ft 174 kts 218°
2026-04-29 17:19 60.24216 21.95847 1216 ft 175 kts 218°
2026-04-29 17:20 60.23172 21.94578 1209 ft 175 kts 218°
2026-04-29 17:20 60.22130 21.93306 1219 ft 176 kts 218°
2026-04-29 17:20 60.21079 21.92025 1237 ft 177 kts 217°
2026-04-29 17:20 60.20004 21.90767 1257 ft 180 kts 216°
2026-04-29 17:21 60.18895 21.89608 1319 ft 179 kts 210°
2026-04-29 17:21 60.17768 21.88566 1294 ft 178 kts 216°
2026-04-29 17:21 60.16706 21.87290 1256 ft 178 kts 217°
2026-04-29 17:21 60.15649 21.85974 1222 ft 180 kts 218°
2026-04-29 17:22 60.14587 21.84648 1221 ft 180 kts 218°
2026-04-29 17:22 60.13518 21.83317 1210 ft 181 kts 218°
2026-04-29 17:22 60.12443 21.82006 1188 ft 181 kts 218°
2026-04-29 17:22 60.11366 21.80700 1164 ft 180 kts 218°
2026-04-29 17:23 60.10295 21.79386 1139 ft 180 kts 218°
2026-04-29 17:23 60.09233 21.78065 1113 ft 179 kts 218°
2026-04-29 17:23 60.08173 21.76752 1082 ft 179 kts 218°
2026-04-29 17:23 60.07114 21.75446 1088 ft 179 kts 218°
2026-04-29 17:24 60.06067 21.74164 1094 ft 178 kts 218°
2026-04-29 17:24 60.05006 21.72871 1070 ft 178 kts 218°
2026-04-29 17:24 60.03951 21.71574 1033 ft 177 kts 218°
2026-04-29 17:24 60.02901 21.70278 998 ft 177 kts 218°
2026-04-29 17:25 60.01923 21.69073 983 ft 176 kts 217°